METEOR 2-5 DEB, 38275

Orbit data source: Space-Track

METEOR 2-5 DEB, 38275 is space debris in LEO originally from a launch on Wed, 31 Oct 1979 UTC launched from the Plesetsk Missile And Space Complex (PKMTR). Debris objects in space refer to the collection of defunct objects orbiting the Earth. Examples of debris include non-operational satellites, rocket bodies, and fragments generated from explosions, collisions, or faulty payload assembly.

Loading next visibility...
Identifier
38275, 1979-095BV
Orbit
LEO
Country
Flag of CISCIS
Related business
Manufacturer
Unknown
Mission
Spacecraft
Bus & Motor
Unknown
Mass
Unknown
Launch date (UTC)
1979-10-31 (47 years ago)
Launch vehicle
Unknown
Launch site
Plesetsk Missile And Space Complex (PKMTR)
Object type
Payload
Rocket body
Debris
Shape & HBR
Unknown shape, 0.1 m
Radar Cross Section
Small (<0.1 m²)

Expand to show TLE details & history
Last TLE update: 2 weeks ago

TLE from 2 weeks ago
0 METEOR 2-5 DEB
1 38275U 79095BV  26162.98557080  .00048035  00000-0  41306-2 0  9990
2 38275  81.1171  48.2022 0007959 277.5262  82.5052 14.97152534674274
Epoch: 2026-06-11T23:39Z
TLE epoch observation values (Epoch: 2026-06-11T23:39:13.317Z)
Latitude
0.00001°
Longitude
153.0752°
Altitude
577.995 km
Speed
7.572 km/s
True Right ascension
03h 12m 48s
True Declination
0° 00' 00"
Sunlit
Object was in daylight at epoch
Visualization orbit readout
Latitude
Unknown
Longitude
Unknown
Altitude
Unknown
Speed
Unknown
Apparent Right ascension
Unknown
Apparent Declination
Unknown
Sunlit
N/A
Visualization observer readout
Local Sidereal Time
23:21:15
Azimuth
Unknown
Elevation
Unknown
Doppler factor
Unknown
Orbital elements
Apogee altitude
578.297 km
Perigee altitude
567.232 km
Semi-major axis
6,950.902 km
Eccentricity
0.0008
Inclination
81.1171°
RAAN
48.2022°
Arg. of periapsis
277.5262°
True anomaly
82.59564°
Mean anomaly
82.5052°
Eccentric anomaly
82.55042°
Mean motion
3.74526 °/min
Orbital period
96.12 mins
BSTAR
0.0041306
Loading maneuver chart data...
Computing Atmospheric mass density...

Documentation

Showing up to 5 results
|